マクミラン彗星

P/2010 J3 ( McMillan )

English version
Home page
Updated on October 3, 2011

---------------------------------------------------------------------

・ プロフィール

発見日 2010年5月12日
発見光度 17.8等
発見者 R. S. McMillan (Spacewatch)

・ 写真集

・ 軌道要素

Epoch 2010 Sept. 1.0 TT = JDT 2455440.5
T 2010 Aug. 23.48147 TT                                 MPC
q   2.4551022            (2000.0)            P               Q
n   0.03659510     Peri.  157.31873     -0.09504652     +0.97093415
a   8.9850557      Node   106.66053     -0.94488866     -0.01854615
e   0.7267571      Incl.   13.25535     -0.31329152     -0.23862715
P  26.9
From 491 observations 2010 Feb. 3-2011 Sept. 20, mean residual 0".5.

・ 星図

・ 光度変化

        m1 = 11.8 + 5 logΔ + 10.0 log r

---------------------------------------------------------------------

軌道要素はM.P.E.C. 2011-S56に掲載されたものです。
星図はステラナビゲータ Ver.8 (アストロアーツ) で作成したものです。
光度グラフはComet for Windowsで作成したものです。

---------------------------------------------------------------------

Copyright(C) Seiichi Yoshida (comet@aerith.net). All rights reserved.